RH
9 13 13 12 11 12 12 12 12 10 8 7 6 5 5 7 10 13 14 15 15 16 17 16 17 19 21 23 24 24 25 25 24
8 11 14 15 14 14 14 12 11 8 8 11 12 12 12 10 10 10 11 12 12 12 13 18 23 25 23 20 17 19 22 23 23
11 7 7 8 7 8 8 8 9 9 10 11 13 14 14 14 14 14 14 14 14 15 17 20 24 25 24 23 24 22 17 16 20
25 22 22 17 8 7 8 8 9 10 11 11 12 15 20 21 21 20 19 18 15 16 17 19 22 24 25 25 25 24 22 18 14
40 34 30 28 28 30 28 26 24 23 23 22 23 24 24 23 24 24 25 25 25 22 21 24 25 26 24 23 21 18 16 18 17
37 39 39 37 32 28 27 26 26 25 25 26 26 27 28 28 30 29 29 24 19 14 14 18 21 20 17 13 11 11 13 15 15
33 34 36 34 32 30 28 27 27 27 28 27 27 27 25 21 18 15 12 7 6 7 9 10 11 10 8 8 7 7 7 8 8
35 35 35 35 34 31 29 28 27 26 25 24 20 12 2 2 3 4 4 5 6 7 7 6 6 6 6 8 9 9 10 10 10
37 34 32 32 29 26 25 26 24 20 18 14 8 2 1 3 4 7 8 10 15 16 16 18 21 24 25 25 25 25 25 25 25
34 34 33 32 33 32 26 19 12 8 6 3 3 6 10 16 18 21 24 27 29 30 27 24 21 17 15 14 13 13 13 13 14
36 35 36 37 35 24 13 6 4 3 5 8 12 17 21 26 28 31 29 23 17 12 11 10 10 11 10 10 10 9 9 8 8
35 37 39 39 26 13 6 6 9 10 14 18 26 30 33 31 25 18 14 11 10 11 12 12 12 11 11 10 11 12 13 14 14
40 40 42 26 9 6 8 18 26 32 34 36 35 29 21 14 12 11 12 13 13 12 12 12 12 12 13 14 15 16 17 18 19
43 44 27 8 7 12 26 35 37 36 33 28 23 19 15 14 14 15 15 13 12 12 11 11 11 12 13 14 15 16 16 17 17
45 31 8 9 23 37 44 41 34 30 26 23 22 18 15 16 17 16 13 13 13 14 14 13 13 15 15 17 18 18 18 18 18
28 7 6 22 41 47 41 34 30 28 26 22 18 17 18 17 15 15 16 16 15 16 16 16 15 18 19 20 20 20 20 20 19
8 7 23 38 45 40 33 34 33 27 20 19 17 17 18 19 19 18 16 16 16 17 18 20 22 22 20 19 19 19 18 18 18
10 15 31 44 38 37 38 30 24 21 20 21 21 19 19 18 18 18 18 19 19 21 22 22 22 21 20 19 18 17 16 14 14
25 42 41 38 35 26 23 21 20 22 23 23 23 22 20 19 18 20 21 21 22 22 22 23 22 20 18 16 14 13 11 10 9
42 40 34 27 26 23 22 24 26 25 26 25 25 27 27 27 23 18 20 21 22 22 23 22 19 17 16 14 12 11 9 7 6
Wind_Speed
19 19 19 19 19 20 20 20 21 22 23 23 23 22 21 20 18 20 22 23 23 24 23 23 23 24 23 24 23 23 23 24 24
19 20 22 22 23 23 23 22 22 22 22 21 22 22 22 22 21 24 26 28 28 28 27 26 27 28 30 30 31 31 31 31 30
16 18 21 23 24 23 24 23 23 22 22 23 25 26 26 27 27 28 29 30 32 31 31 30 31 33 36 36 36 36 37 37 37
20 20 20 20 20 21 23 23 24 25 25 27 28 30 30 31 32 33 34 35 36 37 38 38 38 38 40 43 43 42 41 41 42
23 24 24 23 23 24 25 26 27 28 29 31 32 35 36 35 36 38 38 39 39 41 44 44 45 45 46 46 47 47 46 45 44
23 24 25 26 26 27 28 29 30 32 33 34 36 38 39 39 40 41 42 44 45 45 45 46 47 48 46 44 44 44 44 45 46
21 22 23 25 27 28 29 31 32 34 35 37 38 41 42 44 46 46 47 44 43 41 41 41 41 42 41 42 42 42 43 45 46
21 20 22 23 25 27 30 32 34 36 37 39 42 45 43 40 37 37 37 36 38 36 36 36 37 38 38 38 39 40 40 40 42
22 22 23 26 28 32 34 36 38 39 41 42 43 40 37 33 32 31 32 33 34 35 36 36 37 39 41 42 43 44 45 46 47
24 25 28 29 31 34 35 37 39 40 41 40 38 35 33 32 32 32 33 35 36 37 39 41 41 41 42 44 46 47 47 49 50
29 30 32 34 35 37 37 36 36 37 37 36 34 34 33 33 35 35 34 35 35 37 38 40 43 45 46 47 48 49 50 52 52
33 34 36 38 39 38 35 34 33 32 32 32 32 33 34 34 35 35 36 36 37 40 42 45 47 51 53 54 56 56 57 57 58
35 36 39 41 39 35 33 32 31 32 33 33 34 34 34 35 36 37 38 40 42 44 45 49 51 54 55 58 60 61 61 62 62
37 39 42 39 35 33 33 34 34 35 36 35 36 35 37 38 40 42 43 46 48 50 52 54 56 59 60 63 64 66 66 66 66
40 43 42 38 36 35 36 35 37 38 38 38 38 39 42 44 45 47 49 52 54 57 60 64 65 66 67 67 68 70 72 73 72
42 42 40 39 38 37 38 39 39 40 42 43 44 46 47 49 50 54 56 58 61 64 67 69 71 71 71 72 73 74 75 77 79
42 41 38 38 40 41 41 41 41 43 46 48 48 49 50 53 57 61 66 68 70 71 72 73 73 75 76 77 79 81 81 80 80
41 41 40 41 43 43 44 45 46 47 51 54 59 62 64 66 65 66 68 70 71 73 74 76 77 79 80 81 83 83 85 86 87
40 41 42 42 43 43 44 47 50 54 57 60 64 69 74 76 75 71 71 72 74 75 77 80 82 84 85 85 85 86 87 88 89
41 41 40 40 43 46 50 53 57 61 64 67 69 70 71 73 76 76 78 78 79 81 83 84 85 87 89 90 91 93 94 94 96
Wind_Direction
263 265 269 271 273 277 280 285 286 279 278 279 281 280 279 277 280 284 286 289 290 291 292 292 293 292 291 290 289 288 287 285 284
272 271 272 274 274 277 281 283 285 281 281 283 286 287 285 285 283 280 282 284 285 285 284 285 290 292 291 288 285 281 280 279 279
283 278 278 279 279 279 278 278 280 278 279 280 282 284 286 284 283 279 278 279 281 281 279 277 281 286 288 286 284 281 277 276 275
277 278 279 281 283 282 280 280 280 278 279 279 279 281 282 282 283 282 280 279 277 277 277 278 279 281 286 285 282 280 277 273 272
282 280 280 282 282 281 282 282 280 279 278 279 281 283 283 285 286 286 286 284 282 281 281 282 283 283 285 283 282 280 277 273 271
285 283 282 281 279 279 279 279 279 281 282 283 284 285 287 287 286 285 285 286 286 284 281 280 281 283 285 283 282 281 281 279 277
287 285 282 281 280 281 282 283 283 283 285 285 286 285 285 286 283 284 283 284 284 283 284 282 280 281 283 283 283 283 283 281 280
290 290 290 289 288 287 286 285 285 286 285 287 287 287 289 288 287 285 284 285 284 285 284 284 284 284 285 285 284 284 284 284 284
290 292 291 291 293 293 293 291 290 290 290 289 289 289 290 291 292 293 292 291 291 292 291 290 290 291 291 290 289 288 287 285 283
291 290 292 293 294 295 295 293 291 290 289 289 289 291 293 295 295 295 294 295 295 295 295 295 294 291 290 289 289 288 286 285 283
292 290 291 294 295 296 296 293 291 289 290 291 293 293 295 296 295 293 294 292 292 293 293 292 291 291 290 289 288 288 287 286 285
290 291 294 296 298 298 296 295 296 295 294 293 292 293 293 292 290 291 290 290 292 291 290 291 291 291 290 290 288 287 286 285 284
289 291 294 297 297 296 297 299 297 295 294 293 292 291 290 287 287 287 288 290 288 289 291 291 292 290 289 289 288 286 285 284 282
289 293 296 296 295 297 297 296 296 294 293 293 290 288 285 286 286 287 287 288 291 290 292 292 291 291 291 289 288 286 284 282 281
294 297 297 296 297 296 295 294 294 293 293 291 289 287 287 287 287 287 290 291 292 293 294 295 295 294 292 289 287 286 285 284 281
298 299 298 298 298 297 297 296 295 295 293 291 291 293 294 294 294 293 293 293 292 293 293 293 293 292 290 289 286 284 282 281 281
298 298 298 300 301 300 298 297 298 299 299 298 297 294 294 295 296 295 296 295 294 293 294 294 293 292 290 289 287 286 284 281 279
298 298 300 301 301 303 305 305 303 301 301 300 299 295 293 292 291 290 291 291 292 293 292 292 292 291 289 287 286 285 284 283 282
299 299 300 303 304 303 302 300 300 300 300 299 299 298 298 297 296 294 293 293 293 293 293 293 293 292 290 289 288 287 286 285 283
300 301 301 301 301 301 301 301 300 300 299 298 297 298 298 298 297 295 295 296 296 296 295 294 294 293 293 292 291 290 289 287 284